Location: Newark
(50.4348°N, 30.5552°E)
Time: 06:16:20
(UTC+00:00)

Tiros 1 despin weight - Pass Details

Date: 24 January 2020
Orbit: 594 x 642 km, 48.2° (Epoch: 27 February)

Event Time Altitude Azimuth Distance (km) Brightness Sun altitude
Rises 12:48:08 0° 269° (W) 2,895 ? 12.1°
Reaches altitude 10° 12:50:26 10° 266° (W) 1,996 ? 11.8°
Maximum altitude 12:55:00 66° 185° (S) 690 ? 11.4°
Drops below altitude 10° 12:59:37 10° 104° (ESE) 2,021 ? 10.9°
Sets 13:01:58 0° 101° (ESE) 2,934 ? 10.7°
